Station 44014 (LLNR 550) - VIRGINIA BEACH 64 NM East of Virginia Beach, VA Image indicating link to RSS feed of recent meteorological observations for station 44014


Conditions at 44014 as of
(4:40 am EDT)
0840 GMT on 04/20/2026:
     

Click on the graph icon in the table below to see a time series plot of the last five days of that observation.

5-day plot - Air Temperature Air Temperature (ATMP): 52.0 °F
5-day plot - Water Temperature Water Temperature (WTMP): 53.4 °F
5-day plot - Dew Point Dew Point (DEWP): 48.4 °F
Previous observations
TIME
(EDT)
5-day plot - Wind Direction
WDIR
 
5-day plot - Wind Speed
WSPD
kts
5-day plot - Wind Gust
GST
kts
5-day plot - Wave Height
WVHT
ft
5-day plot - Dominant Wave Period
DPD
sec
5-day plot - Average Wave Period
APD
sec
5-day plot - Mean Wave Direction
MWD
 
5-day plot - Atmospheric Pressure
PRES
in
5-day plot - Pressure Tendency
PTDY
in
5-day plot - Air Temperature
ATMP
°F
5-day plot - Water Temperature
WTMP
°F
5-day plot - Dew Point
DEWP
°F
5-day plot - Salinity
SAL
psu
5-day plot - Visibility
VIS
nmi
5-day plot - Tide (above MLLW)
TIDE
ft
2026-04-20 04:30 am--------- 52.3 53.4 48.2---
2026-04-20 04:20 am--- 3.3 64.5NNE-- 52.3 53.2 48.0---
2026-04-20 04:10 am--------- 52.3 53.2 48.2---
2026-04-20 04:00 am--- 3.3-4.5NNE-- 52.3 53.2 48.4---
2026-04-20 03:50 am--- 3.3-4.4NNE-- 52.5 53.2 48.4---
2026-04-20 03:40 am--- 3.3 64.4NNE--------
2026-04-20 03:30 am--------- 52.5 53.2 48.4---
2026-04-20 03:20 am--- 3.3-4.5NNE-- 52.5 53.2 48.4---
2026-04-20 03:10 am--- 3.3-4.5NNE-- 52.5 53.2 48.4---
2026-04-20 03:00 am--------- 52.5 53.2 48.4---
2026-04-20 02:50 am--- 3.6 64.6NNE-- 52.3 53.2 48.4---
2026-04-20 02:40 am--- 3.6-4.6NNE-- 52.3 53.2 48.6---
2026-04-20 02:30 am--------- 52.2 53.2 48.4---
2026-04-20 02:20 am--- 3.6 64.6 N-- 52.0 53.2 48.2---
2026-04-20 02:10 am--- 3.6-4.6 N-- 52.0 53.2 48.4---
2026-04-20 02:00 am--------- 51.8 53.2 48.2---
2026-04-20 01:50 am--- 3.6 64.7 N-- 51.8 53.2 48.2---
2026-04-20 01:40 am--------- 51.8 53.4 48.2---
2026-04-20 01:30 am--------- 52.0 53.4 48.4---
2026-04-20 01:20 am--- 3.9 64.6NNE-- 52.0 53.4 48.6---
2026-04-20 01:10 am--------- 52.2 53.4 48.4---
2026-04-20 01:00 am--------- 52.2 53.4 48.0---
2026-04-20 12:50 am--- 4.3 74.6 N-- 52.0 53.4 47.3---
2026-04-20 12:40 am--------- 52.0 53.4 47.1---
2026-04-20 12:30 am--------- 52.0 53.4 47.3---
2026-04-20 12:20 am--- 4.6 74.8 N-- 52.0 53.4 47.7---
2026-04-20 12:10 am--------- 52.0 53.4 47.5---
2026-04-20 12:00 am--------- 52.0 53.4 47.7---
2026-04-19 11:50 pm--- 4.6 64.8 N-- 51.8 53.6 47.5---
2026-04-19 11:40 pm--------- 51.8 53.4 47.7---
2026-04-19 11:30 pm--------- 51.8 53.6 47.5---
2026-04-19 11:20 pm--- 4.9 75.0 N-- 51.8 53.6 47.7---
2026-04-19 11:10 pm--------- 51.6 53.6 47.5---
2026-04-19 11:00 pm--------- 51.6 53.6 47.5---
2026-04-19 10:50 pm--- 4.9 74.8NNE-- 51.6 53.6 47.3---
2026-04-19 10:40 pm--------- 51.6 53.8 47.1---
2026-04-19 10:30 pm--------- 51.6 53.8 47.1---
2026-04-19 10:20 pm--- 5.2 74.9NNE-- 51.6 53.8 47.5---
2026-04-19 10:10 pm--- 5.2-4.9NNE-- 51.6 54.0 47.3---
2026-04-19 10:00 pm--------- 51.6 54.0 46.9---
2026-04-19 09:50 pm--- 5.6 75.0NNE-- 51.6 54.0 46.9---
2026-04-19 09:40 pm--------- 51.4 54.0 46.2---
2026-04-19 09:30 pm--------- 51.4 54.1 46.2---
2026-04-19 09:20 pm--- 5.6 74.9 N-- 51.4 54.1 46.2---
2026-04-19 09:10 pm--- 5.6-4.9 N-- 51.3 54.3 46.2---
2026-04-19 09:00 pm--------- 51.4 54.3 46.9---
2026-04-19 08:50 pm--- 5.6-4.9 N-- 51.4 54.3 46.8---
2026-04-19 08:40 pm--- 5.6-4.9 N-- 51.3 54.3 46.6---
2026-04-19 08:30 pm--------- 51.3 54.3 46.9---
2026-04-19 08:20 pm--- 5.6 64.9NNE-- 51.1 54.3 47.8---
2026-04-19 08:10 pm--- 5.6-4.9NNE-- 50.9 54.3 48.4---
2026-04-19 08:00 pm--------- 50.7- 48.9---
2026-04-19 07:50 pm--- 5.2 64.6NNW-- 50.7 54.5 48.9---
2026-04-19 07:40 pm--------- 50.9 54.5 49.3---
2026-04-19 07:30 pm--------- 51.1 54.5 49.3---
2026-04-19 07:20 pm--- 5.2 64.4NNW-- 51.4- 49.5---
2026-04-19 07:10 pm--- 5.2-4.4NNW-- 51.6 54.7 49.5---
2026-04-19 07:00 pm--------- 51.8- 49.8---
2026-04-19 06:50 pm--- 5.2 64.5NNW-- 51.8- 49.5---
2026-04-19 06:40 pm--------- 51.6 54.5 49.3---
2026-04-19 06:30 pm--- 5.2-4.5NNW-- 52.5 54.7 50.2---
2026-04-19 06:20 pm--- 4.9 64.4NNW-- 52.7 54.7 49.8---
2026-04-19 06:10 pm--------- 52.9 54.7 49.6---
2026-04-19 06:00 pm--------- 53.1 54.7 49.8---
2026-04-19 05:50 pm--- 5.2 64.4 N-- 53.2- 50.2---
2026-04-19 05:40 pm--------- 53.2 54.7 50.2---
2026-04-19 05:30 pm--------- 53.6 54.7 50.9---
2026-04-19 05:20 pm--- 5.6 64.6 NW-- 53.8 54.7 50.9---
2026-04-19 05:10 pm--- 5.6-4.6 NW-- 54.0 54.7 50.9---
2026-04-19 05:00 pm--------- 54.0- 50.7---
2026-04-19 04:50 pm--- 6.2 64.6 NW-- 54.0 54.7 50.5---
2026-04-19 04:40 pm--------- 54.0 54.7 50.5---
2026-04-19 04:30 pm--------- 54.1 54.7 50.5---
2026-04-19 04:20 pm--------- 54.0- 50.5---
2026-04-19 04:10 pm--------- 54.0 54.9 50.7---
2026-04-19 04:00 pm--------- 54.0 55.0 50.9---
2026-04-19 03:50 pm--- 6.6 54.6NNW-- 53.6- 50.9---
2026-04-19 03:40 pm--- 6.6-4.6NNW-- 53.4 55.0 50.7---
2026-04-19 03:30 pm--------- 53.6 55.2 50.9---
2026-04-19 03:20 pm--- 6.2 54.4NNW-- 53.6 55.2 50.9---
2026-04-19 03:10 pm--- 6.2-4.4NNW-- 54.0 55.2 51.1---
2026-04-19 03:00 pm--------- 54.3 55.6 51.3---
2026-04-19 02:50 pm--- 6.2 54.4NNW-- 54.5 55.6 51.3---
2026-04-19 02:40 pm--------- 54.7 55.8 51.4---
2026-04-19 02:30 pm--------- 54.7 55.9 51.4---
2026-04-19 02:20 pm--- 4.9 54.0NNW-- 54.7 56.1 52.0---
2026-04-19 02:10 pm--------- 54.7 56.1 52.7---
2026-04-19 02:00 pm--------- 54.9 56.3 53.1---
2026-04-19 01:50 pm--- 5.2 43.9NNW-- 55.2- 53.8---
2026-04-19 01:40 pm--- 5.2-3.9NNW-- 55.6 56.5 54.3---
2026-04-19 01:30 pm--------- 56.1 56.3 54.5---
2026-04-19 01:20 pm--- 3.9 63.7SSE-- 56.8 56.5 55.0---
2026-04-19 01:10 pm--- 3.9-3.7SSE-- 57.4 56.7 55.4---
2026-04-19 01:00 pm--------- 57.7 56.7 55.6---
2026-04-19 12:50 pm--- 3.9 54.0SSE-- 58.1 56.7 55.8---
2026-04-19 12:40 pm--------- 58.3 56.5 55.9---
2026-04-19 12:30 pm--------- 58.5 56.5 55.9---
2026-04-19 12:20 pm--------- 58.5 56.5 55.9---
2026-04-19 12:10 pm--------- 58.1 56.5 56.1---
2026-04-19 12:00 pm--------- 58.5 56.5 57.4---
2026-04-19 11:50 am--- 3.9 54.3 S-- 61.0 56.5 60.6---
2026-04-19 11:40 am--------- 61.2 56.5 60.8---
2026-04-19 11:30 am--------- 61.3 56.5 61.0---
2026-04-19 11:20 am--- 4.3 64.4SSE-- 61.5 56.5 61.2---
2026-04-19 11:10 am--- 4.3-4.4SSE-- 61.7 56.3 61.3---
2026-04-19 11:00 am--------- 61.9 56.3 61.5---
2026-04-19 10:50 am--- 4.3 64.3SSE-- 62.1 56.3 61.7---
2026-04-19 10:40 am--------- 61.7 56.3 61.3---
2026-04-19 10:30 am--------- 61.7 56.3 61.3---
2026-04-19 10:20 am--- 4.3 54.3 S-- 61.3 56.3 61.0---
2026-04-19 10:10 am--------- 61.3 56.1 61.0---
2026-04-19 10:00 am--------- 61.5 56.1 61.2---
2026-04-19 09:50 am--- 4.3 54.1 S-- 61.5 56.1 61.2---
2026-04-19 09:40 am--- 4.3-4.1 S-- 61.3 56.1 61.0---
2026-04-19 09:30 am--------- 61.3 56.1 61.0---
2026-04-19 09:20 am--- 4.3 54.2 S-- 61.5 56.1 61.2---
2026-04-19 09:10 am--- 4.3-4.2 S-- 61.5 56.1 61.2---
2026-04-19 09:00 am--------- 61.5 56.1 61.2---
2026-04-19 08:50 am--- 4.3 54.2 S-- 61.7 56.1 61.3---
2026-04-19 08:40 am--------- 61.9 56.1 61.5---
2026-04-19 08:30 am--------- 61.9 56.1 61.5---
2026-04-19 08:20 am--- 4.3 54.2SSE-- 61.9 56.1 61.5---
2026-04-19 08:10 am--- 4.3-4.2SSE-- 61.9 56.1 61.5---
2026-04-19 08:00 am--------- 61.7 56.3 61.3---
2026-04-19 07:50 am--- 3.9 44.1 S-- 61.7 56.3 61.5---
2026-04-19 07:40 am--------- 61.7 56.3 61.5---
2026-04-19 07:30 am--------- 61.7 56.3 61.7---
2026-04-19 07:20 am--- 3.9-4.0 S-- 61.9 56.3 61.9---
2026-04-19 07:10 am--- 3.9-4.0 S-- 61.9 56.3 61.9---
2026-04-19 07:00 am--------- 61.9 56.3 61.9---
2026-04-19 06:50 am--- 3.6 44.0 S-- 62.1 56.3 62.1---
2026-04-19 06:40 am--------- 62.2 56.3 62.2---
2026-04-19 06:30 am--------- 62.4 56.3 62.4---
2026-04-19 06:20 am--- 3.6-3.9 S-- 62.6 56.3 62.6---
2026-04-19 06:10 am--- 3.6-3.9 S-- 62.4 56.5 62.4---
2026-04-19 06:00 am--------- 62.2 56.5 62.2---
2026-04-19 05:50 am--- 3.3-4.0 S-- 62.4 56.5 62.4---
2026-04-19 05:40 am--------- 62.2 56.7 62.2---
2026-04-19 05:30 am--- 3.3-4.0 S-- 62.1 56.7 62.1---
2026-04-19 05:20 am--- 3.3 44.1 S-- 62.2 56.7 62.2---
2026-04-19 05:10 am--- 3.3-4.1 S-- 62.1 56.7 62.1---
2026-04-19 05:00 am--------- 62.2 56.8 62.2---
2026-04-19 04:50 am--- 3.0-4.2 SE-- 62.1 56.8 62.1---

Wave Summary
for 44014 as of (4:10 am EDT)
0810 GMT on 04/20/2026:

These wave data are displayed in rounded times.

     

Click on the graph icon in the table below to see a time series plot of the last five days of that observation.

5-day plot - Significant Wave Height Significant Wave Height (WVHT): 3.3 ft
5-day plot - Wave Steepness Wave Steepness (STEEPNESS): STEEP
5-day plot - Average Wave Period Average Wave Period (APD): 4.5 sec
Previous observations
TIME
(EDT)
5-day plot - Wave Height
WVHT
ft
5-day plot - Swell Height
SwH
ft
5-day plot - Swell Period
SwP
sec
5-day plot - Swell Direction
SwD
 
5-day plot - Wind Wave Height
WWH
ft
5-day plot - Wind Wave Period
WWP
sec
5-day plot - Wind Wave Direction
WWD
 
5-day plot - Wave Steepness
STEEPNESS
 
5-day plot - Average Wave Period
APD
sec
2026-04-20 03:40 am 3.3------ STEEP 4.4
2026-04-20 03:10 am 3.3------ STEEP 4.5
2026-04-20 02:40 am 3.6------ STEEP 4.6
2026-04-20 02:10 am 3.6------ STEEP 4.6
2026-04-20 01:40 am 3.6------ STEEP 4.7
2026-04-20 01:10 am 3.9------ STEEP 4.6
2026-04-20 12:40 am 4.3------ STEEP 4.6
2026-04-20 12:10 am 4.6------ STEEP 4.8
2026-04-19 11:40 pm 4.6------VERY_STEEP 4.8
2026-04-19 11:10 pm 4.9------ STEEP 5.0
2026-04-19 10:40 pm 4.9------ STEEP 4.8
2026-04-19 10:10 pm 5.2------ STEEP 4.9
2026-04-19 09:40 pm 5.6------ STEEP 5.0
2026-04-19 09:10 pm 5.6------ STEEP 4.9
2026-04-19 08:40 pm 5.6------ STEEP 4.9
2026-04-19 08:10 pm 5.6------VERY_STEEP 4.9
2026-04-19 07:40 pm 5.2------VERY_STEEP 4.6
2026-04-19 07:10 pm 5.2------ STEEP 4.4
2026-04-19 06:40 pm 5.2------ STEEP 4.5
2026-04-19 06:10 pm 4.9------ STEEP 4.4
2026-04-19 05:40 pm 5.2------VERY_STEEP 4.4
2026-04-19 05:10 pm 5.6------VERY_STEEP 4.6
2026-04-19 04:40 pm 6.2------VERY_STEEP 4.6
2026-04-19 03:40 pm 6.6------VERY_STEEP 4.6
2026-04-19 03:10 pm 6.2------VERY_STEEP 4.4
2026-04-19 02:40 pm 6.2------VERY_STEEP 4.4
2026-04-19 02:10 pm 4.9------VERY_STEEP 4.0
2026-04-19 01:40 pm 5.2------VERY_STEEP 3.9
2026-04-19 01:10 pm 3.9------VERY_STEEP 3.7
2026-04-19 12:40 pm 3.9------VERY_STEEP 4.0
2026-04-19 11:40 am 3.9------VERY_STEEP 4.3
2026-04-19 11:10 am 4.3------VERY_STEEP 4.4
2026-04-19 10:40 am 4.3------VERY_STEEP 4.3
2026-04-19 10:10 am 4.3------VERY_STEEP 4.3
2026-04-19 09:40 am 4.3------VERY_STEEP 4.1
2026-04-19 09:10 am 4.3------VERY_STEEP 4.2
2026-04-19 08:40 am 4.3------VERY_STEEP 4.2
2026-04-19 08:10 am 4.3------VERY_STEEP 4.2
2026-04-19 07:40 am 3.9------VERY_STEEP 4.1
2026-04-19 07:10 am 3.9------VERY_STEEP 4.0
2026-04-19 06:40 am 3.6------VERY_STEEP 4.0
2026-04-19 06:10 am 3.6------VERY_STEEP 3.9
2026-04-19 05:40 am 3.3------VERY_STEEP 4.0
2026-04-19 05:10 am 3.3------VERY_STEEP 4.1

Plot icon Plot of wave energy versus frequency (and period)